User: anonymous
Location: Unspecified
(0.0000°N, 0.0000°E)
Time: 10:17:09
(UTC+00:00)
Language:

GEOEYE 1 - Orbit

View from above orbital plane
View from above orbital plane
View from above satellite
View from above satellite

Ground track
Ground track

The orbit data is extracted from the following two-line orbital elements,

1 33331U 08042A   14273.69299422  .00000736  00000-0  14888-3 0  6655
2 33331 098.1294 347.3000 0010660 131.7904 228.4208 14.64189074324158
Epoch (UTC): 30 September 2014 16:37:54
Eccentricity: 0.0010660
inclination: 98.1294°
perigee height: 672 km
apogee height: 687 km
right ascension of ascending node: 347.3000°
argument of perigee: 131.7904°
revolutions per day: 14.64189074
mean anomaly at epoch: 228.4208°
orbit number at epoch: 32415

The dashed part of the orbit path shows where the satellite is in the earth's shadow,  

DLR